ISR252 EDDB-LLBG

Flight info

Callsign ISR252
Flight time 3h 31m
Altitude 37000
Route ARSAP4B ARSAP DCT OLUMA DCT KULUV T710 VAGON DCT KELEL DCT ETNIK DCT NARKA DCT ORA DCT BUXLE DCT DITAX DCT RODIP UN131 KULAR UT39 TOMBI DCT IDAKU DCT PIKOG L609 ZUKKO
Aircraft A320/M-SDE3FGHIRWY/LB1

Departure

Time 2026-05-06 16:08
Airport Berlin Brandenburg Airport (EDDB)

Arrival

Time 2026-05-06 19:39
Airport Ben Gurion International Airport (LLBG)
Time Latitude Longitude Altitude Speed Heading
2026-05-06 15:36 52.36059 13.50802 155 ft 0 kts 69°
2026-05-06 15:58 52.36057 13.50795 154 ft 2 kts 69°
2026-05-06 15:59 52.36050 13.50766 155 ft 3 kts 69°
2026-05-06 15:59 52.36043 13.50735 154 ft 3 kts 69°
2026-05-06 15:59 52.36036 13.50705 154 ft 3 kts 82°
2026-05-06 15:59 52.36037 13.50675 154 ft 3 kts 114°
2026-05-06 16:00 52.36046 13.50653 154 ft 2 kts 154°
2026-05-06 16:00 52.36051 13.50649 154 ft 0 kts 159°
2026-05-06 16:03 52.36049 13.50650 154 ft 2 kts 159°
2026-05-06 16:03 52.36010 13.50675 154 ft 10 kts 159°
2026-05-06 16:03 52.35941 13.50718 154 ft 12 kts 159°
2026-05-06 16:04 52.35860 13.50770 154 ft 12 kts 158°
2026-05-06 16:04 52.35793 13.50708 154 ft 14 kts 247°
2026-05-06 16:04 52.35757 13.50554 154 ft 15 kts 249°
2026-05-06 16:04 52.35715 13.50380 154 ft 17 kts 249°
2026-05-06 16:05 52.35669 13.50183 154 ft 20 kts 249°
2026-05-06 16:05 52.35616 13.49964 154 ft 22 kts 248°
2026-05-06 16:05 52.35559 13.49723 154 ft 24 kts 249°
2026-05-06 16:05 52.35497 13.49463 157 ft 26 kts 249°
2026-05-06 16:06 52.35430 13.49179 154 ft 28 kts 249°
2026-05-06 16:06 52.35358 13.48876 154 ft 30 kts 249°
2026-05-06 16:06 52.35288 13.48579 154 ft 15 kts 249°
2026-05-06 16:06 52.35234 13.48474 154 ft 13 kts 181°
2026-05-06 16:07 52.35146 13.48525 154 ft 14 kts 159°
2026-05-06 16:07 52.35100 13.48625 154 ft 12 kts 99°
2026-05-06 16:07 52.35087 13.48770 154 ft 15 kts 99°
2026-05-06 16:07 52.35062 13.48951 154 ft 12 kts 115°
2026-05-06 16:08 52.35090 13.49150 154 ft 40 kts 69°
2026-05-06 16:08 52.35278 13.49936 154 ft 105 kts 69°
2026-05-06 16:08 52.35604 13.51304 167 ft 151 kts 68°
2026-05-06 16:08 52.35974 13.52903 766 ft 149 kts 70°
2026-05-06 16:09 52.35867 13.54575 1341 ft 158 kts 126°
2026-05-06 16:09 52.35034 13.55785 1970 ft 163 kts 141°
2026-05-06 16:09 52.34073 13.56946 2296 ft 182 kts 141°
2026-05-06 16:09 52.32997 13.58259 2535 ft 204 kts 141°
2026-05-06 16:10 52.31845 13.59695 3022 ft 211 kts 137°
2026-05-06 16:10 52.31040 13.61661 3558 ft 212 kts 104°
2026-05-06 16:10 52.31061 13.64094 3887 ft 229 kts 68°
2026-05-06 16:10 52.31790 13.66468 4499 ft 238 kts 65°
2026-05-06 16:11 52.32377 13.69065 5051 ft 247 kts 73°
2026-05-06 16:11 52.32850 13.71790 5814 ft 252 kts 75°
2026-05-06 16:11 52.33044 13.74678 6450 ft 263 kts 93°
2026-05-06 16:11 52.32846 13.77784 6794 ft 286 kts 97°
2026-05-06 16:12 52.32666 13.81096 7426 ft 296 kts 96°
2026-05-06 16:12 52.32528 13.84482 8214 ft 301 kts 95°
2026-05-06 16:12 52.32410 13.87916 9024 ft 305 kts 95°
2026-05-06 16:12 52.32296 13.91344 9804 ft 308 kts 95°
2026-05-06 16:13 52.32174 13.94863 10533 ft 311 kts 96°
2026-05-06 16:13 52.32043 13.98414 11266 ft 315 kts 96°
2026-05-06 16:13 52.31908 14.02005 11939 ft 319 kts 96°
2026-05-06 16:13 52.31770 14.05640 12662 ft 322 kts 96°
2026-05-06 16:14 52.31573 14.09295 13377 ft 324 kts 103°
2026-05-06 16:14 52.31093 14.12992 13615 ft 343 kts 106°
2026-05-06 16:14 52.30544 14.16899 13740 ft 363 kts 106°
2026-05-06 16:14 52.29963 14.20975 13860 ft 382 kts 106°
2026-05-06 16:15 52.29352 14.25268 14194 ft 393 kts 106°
2026-05-06 16:15 52.28733 14.29649 14703 ft 397 kts 106°
2026-05-06 16:15 52.28111 14.34069 15242 ft 401 kts 106°
2026-05-06 16:15 52.27486 14.38519 15771 ft 404 kts 106°
2026-05-06 16:16 52.26854 14.43006 16316 ft 407 kts 106°
2026-05-06 16:16 52.26215 14.47522 16862 ft 410 kts 106°
2026-05-06 16:16 52.25567 14.52081 17405 ft 414 kts 106°
2026-05-06 16:16 52.24909 14.56666 17948 ft 417 kts 106°
2026-05-06 16:17 52.24242 14.61284 18450 ft 420 kts 106°
2026-05-06 16:17 52.23578 14.65878 18932 ft 423 kts 106°
2026-05-06 16:17 52.22824 14.70526 19414 ft 424 kts 112°
2026-05-06 16:17 52.21666 14.74929 19893 ft 423 kts 121°
2026-05-06 16:18 52.20320 14.79210 20370 ft 426 kts 121°
2026-05-06 16:18 52.18969 14.83519 20826 ft 428 kts 121°
2026-05-06 16:18 52.17613 14.87858 21275 ft 431 kts 121°
2026-05-06 16:18 52.16247 14.92230 21687 ft 434 kts 121°
2026-05-06 16:19 52.14893 14.96559 22127 ft 436 kts 121°
2026-05-06 16:19 52.13513 15.00966 22551 ft 439 kts 121°
2026-05-06 16:19 52.12120 15.05403 22974 ft 442 kts 121°
2026-05-06 16:19 52.10714 15.09862 23370 ft 444 kts 121°
2026-05-06 16:20 52.09296 15.14344 23713 ft 447 kts 121°
2026-05-06 16:20 52.07869 15.18838 24066 ft 449 kts 121°
2026-05-06 16:20 52.06436 15.23356 24413 ft 450 kts 121°
2026-05-06 16:20 52.04997 15.27889 24770 ft 452 kts 121°
2026-05-06 16:21 52.03571 15.32370 25119 ft 454 kts 121°
2026-05-06 16:21 52.02116 15.36929 25461 ft 455 kts 122°
2026-05-06 16:21 52.00658 15.41489 25840 ft 456 kts 122°
2026-05-06 16:21 51.99192 15.46075 26199 ft 458 kts 122°
2026-05-06 16:22 51.97721 15.50667 26526 ft 460 kts 123°
2026-05-06 16:22 51.96244 15.55271 26923 ft 460 kts 123°
2026-05-06 16:22 51.94768 15.59862 27412 ft 459 kts 123°
2026-05-06 16:22 51.93292 15.64441 27890 ft 458 kts 123°
2026-05-06 16:23 51.91815 15.69000 28359 ft 457 kts 123°
2026-05-06 16:23 51.90358 15.73485 28812 ft 456 kts 123°
2026-05-06 16:23 51.88729 15.77850 29248 ft 450 kts 130°
2026-05-06 16:23 51.86957 15.82029 29653 ft 450 kts 130°
2026-05-06 16:24 51.85184 15.86209 30070 ft 450 kts 130°
2026-05-06 16:24 51.83413 15.90379 30459 ft 450 kts 130°
2026-05-06 16:24 51.81641 15.94545 30837 ft 450 kts 130°
2026-05-06 16:24 51.79868 15.98709 31219 ft 450 kts 130°
2026-05-06 16:25 51.78096 16.02866 31609 ft 449 kts 130°
2026-05-06 16:25 51.76347 16.06968 31995 ft 449 kts 130°
2026-05-06 16:25 51.74575 16.11120 32378 ft 449 kts 130°
2026-05-06 16:25 51.72801 16.15271 32767 ft 449 kts 130°
2026-05-06 16:26 51.71027 16.19411 33137 ft 449 kts 131°
2026-05-06 16:26 51.69250 16.23548 33544 ft 449 kts 131°
2026-05-06 16:26 51.67468 16.27678 33915 ft 448 kts 131°
2026-05-06 16:26 51.65687 16.31793 34237 ft 448 kts 131°
2026-05-06 16:27 51.63909 16.35903 34543 ft 448 kts 131°
2026-05-06 16:27 51.62129 16.40024 34846 ft 448 kts 131°
2026-05-06 16:27 51.60377 16.44084 35120 ft 448 kts 131°
2026-05-06 16:27 51.58601 16.48196 35407 ft 448 kts 131°
2026-05-06 16:28 51.56824 16.52301 35686 ft 448 kts 131°
2026-05-06 16:28 51.55038 16.56411 35962 ft 448 kts 131°
2026-05-06 16:28 51.53252 16.60511 36191 ft 449 kts 131°
2026-05-06 16:28 51.51461 16.64617 36417 ft 449 kts 131°
2026-05-06 16:29 51.49666 16.68731 36659 ft 450 kts 131°
2026-05-06 16:29 51.47865 16.72846 36764 ft 453 kts 131°
2026-05-06 16:29 51.44228 16.81136 36775 ft 460 kts 131°
2026-05-06 16:30 51.41126 16.88175 36775 ft 462 kts 131°
2026-05-06 16:30 51.36807 16.97930 36744 ft 462 kts 131°
2026-05-06 16:31 51.33082 17.06316 36772 ft 463 kts 131°
2026-05-06 16:31 51.29078 17.14275 36775 ft 456 kts 140°
2026-05-06 16:32 51.24666 17.21454 36770 ft 456 kts 141°
2026-05-06 16:32 51.20224 17.28674 36781 ft 456 kts 141°
2026-05-06 16:33 51.15783 17.35861 36749 ft 455 kts 141°
2026-05-06 16:34 51.09155 17.46573 36782 ft 454 kts 141°
2026-05-06 16:34 51.04716 17.53716 36789 ft 454 kts 141°
2026-05-06 16:35 51.00272 17.60842 36792 ft 454 kts 141°
2026-05-06 16:35 50.95831 17.67947 36790 ft 453 kts 141°
2026-05-06 16:36 50.91384 17.75028 36758 ft 453 kts 141°
2026-05-06 16:36 50.86959 17.82052 36776 ft 453 kts 141°
2026-05-06 16:37 50.82504 17.89119 36785 ft 454 kts 141°
2026-05-06 16:37 50.78045 17.96179 36793 ft 454 kts 141°
2026-05-06 16:38 50.73579 18.03224 36800 ft 454 kts 141°
2026-05-06 16:38 50.69141 18.10210 36788 ft 454 kts 141°
2026-05-06 16:39 50.64662 18.17232 36803 ft 454 kts 141°
2026-05-06 16:39 50.60180 18.24238 36788 ft 454 kts 141°
2026-05-06 16:40 50.55694 18.31223 36795 ft 454 kts 141°
2026-05-06 16:40 50.51230 18.38148 36800 ft 454 kts 141°
2026-05-06 16:41 50.46738 18.45117 36800 ft 454 kts 141°
2026-05-06 16:41 50.42240 18.52066 36812 ft 454 kts 141°
2026-05-06 16:42 50.37738 18.59008 36810 ft 454 kts 141°
2026-05-06 16:42 50.33229 18.65936 36813 ft 455 kts 141°
2026-05-06 16:43 50.28743 18.72818 36811 ft 455 kts 141°
2026-05-06 16:43 50.24223 18.79734 36795 ft 455 kts 142°
2026-05-06 16:44 50.19686 18.86652 36805 ft 456 kts 142°
2026-05-06 16:44 50.15135 18.93558 36813 ft 457 kts 142°
2026-05-06 16:45 50.10610 19.00414 36821 ft 457 kts 142°
2026-05-06 16:45 50.06053 19.07295 36806 ft 457 kts 142°
2026-05-06 16:46 50.01486 19.14172 36816 ft 457 kts 142°
2026-05-06 16:46 49.96912 19.21041 36825 ft 457 kts 142°
2026-05-06 16:47 49.92338 19.27913 36829 ft 458 kts 142°
2026-05-06 16:47 49.87789 19.34731 36844 ft 458 kts 142°
2026-05-06 16:48 49.83195 19.41571 36833 ft 458 kts 142°
2026-05-06 16:48 49.78595 19.48400 36839 ft 459 kts 142°
2026-05-06 16:49 49.73985 19.55223 36852 ft 459 kts 142°
2026-05-06 16:49 49.69404 19.62006 36855 ft 459 kts 142°
2026-05-06 16:50 49.64789 19.68815 36863 ft 459 kts 142°
2026-05-06 16:50 49.60162 19.75608 36838 ft 459 kts 142°
2026-05-06 16:51 49.55527 19.82402 36852 ft 460 kts 142°
2026-05-06 16:51 49.50888 19.89197 36857 ft 461 kts 142°
2026-05-06 16:52 49.46269 19.95943 36874 ft 461 kts 142°
2026-05-06 16:52 49.41610 20.02716 36862 ft 461 kts 142°
2026-05-06 16:53 49.36936 20.09467 36872 ft 462 kts 141°
2026-05-06 16:53 49.32192 20.16094 36882 ft 458 kts 148°
2026-05-06 16:54 49.26750 20.20888 36890 ft 449 kts 160°
2026-05-06 16:54 49.21129 20.24938 36889 ft 449 kts 160°
2026-05-06 16:55 49.15480 20.29028 36885 ft 450 kts 160°
2026-05-06 16:55 49.09819 20.33112 36868 ft 450 kts 160°
2026-05-06 16:56 49.04139 20.37198 36870 ft 452 kts 160°
2026-05-06 16:56 48.98492 20.41249 36893 ft 452 kts 160°
2026-05-06 16:57 48.92797 20.45315 36902 ft 452 kts 160°
2026-05-06 16:57 48.87103 20.49375 36904 ft 452 kts 160°
2026-05-06 16:58 48.81401 20.53428 36887 ft 452 kts 160°
2026-05-06 16:58 48.75736 20.57447 36878 ft 453 kts 160°
2026-05-06 16:59 48.70018 20.61493 36884 ft 454 kts 160°
2026-05-06 16:59 48.64282 20.65550 36885 ft 455 kts 160°
2026-05-06 17:00 48.58543 20.69593 36897 ft 455 kts 160°
2026-05-06 17:00 48.52973 20.74281 36895 ft 459 kts 154°
2026-05-06 17:01 48.47516 20.79177 36875 ft 460 kts 154°
2026-05-06 17:01 48.42003 20.84113 36875 ft 462 kts 154°
2026-05-06 17:02 48.36472 20.89044 36876 ft 462 kts 154°
2026-05-06 17:02 48.30972 20.93933 36880 ft 462 kts 154°
2026-05-06 17:03 48.25434 20.98848 36888 ft 463 kts 154°
2026-05-06 17:03 48.19892 21.03756 36872 ft 463 kts 154°
2026-05-06 17:04 48.14336 21.08661 36877 ft 464 kts 154°
2026-05-06 17:04 48.08809 21.13524 36887 ft 464 kts 154°
2026-05-06 17:05 48.03246 21.18408 36895 ft 464 kts 154°
2026-05-06 17:05 47.97673 21.23299 36903 ft 464 kts 154°
2026-05-06 17:06 47.92101 21.28176 36902 ft 464 kts 154°
2026-05-06 17:06 47.86528 21.33037 36911 ft 464 kts 154°
2026-05-06 17:07 47.80988 21.37839 36915 ft 464 kts 154°
2026-05-06 17:07 47.75412 21.42668 36916 ft 464 kts 154°
2026-05-06 17:08 47.69844 21.47493 36908 ft 464 kts 154°
2026-05-06 17:08 47.64269 21.52309 36909 ft 464 kts 154°
2026-05-06 17:09 47.58724 21.57080 36922 ft 464 kts 154°
2026-05-06 17:09 47.53140 21.61871 36935 ft 464 kts 154°
2026-05-06 17:10 47.47553 21.66656 36934 ft 464 kts 154°
2026-05-06 17:10 47.41964 21.71424 36925 ft 464 kts 154°
2026-05-06 17:11 47.36371 21.76186 36926 ft 464 kts 154°
2026-05-06 17:11 47.30778 21.80952 36920 ft 464 kts 154°
2026-05-06 17:12 47.25178 21.85536 36923 ft 461 kts 160°
2026-05-06 17:12 47.19150 21.88474 36928 ft 456 kts 168°
2026-05-06 17:13 47.13013 21.90668 36919 ft 452 kts 174°
2026-05-06 17:13 47.06826 21.92322 36913 ft 452 kts 174°
2026-05-06 17:14 47.00620 21.93909 36912 ft 453 kts 174°
2026-05-06 17:14 46.94446 21.95518 36914 ft 454 kts 174°
2026-05-06 17:15 46.88236 21.97181 36920 ft 454 kts 174°
2026-05-06 17:15 46.82024 21.98854 36931 ft 454 kts 174°
2026-05-06 17:16 46.75815 22.00499 36943 ft 453 kts 174°
2026-05-06 17:16 46.69610 22.02126 36948 ft 453 kts 174°
2026-05-06 17:17 46.63439 22.03736 36933 ft 454 kts 174°
2026-05-06 17:17 46.57204 22.05372 36937 ft 456 kts 174°
2026-05-06 17:18 46.50961 22.07014 36942 ft 456 kts 174°
2026-05-06 17:18 46.44713 22.08656 36943 ft 456 kts 174°
2026-05-06 17:19 46.39523 22.10011 36958 ft 456 kts 174°
2026-05-06 17:19 46.32275 22.11899 36961 ft 455 kts 174°
2026-05-06 17:20 46.26039 22.13505 36948 ft 455 kts 174°
2026-05-06 17:20 46.19813 22.15110 36947 ft 456 kts 174°
2026-05-06 17:21 46.14619 22.16456 36945 ft 457 kts 174°
2026-05-06 17:21 46.07345 22.18330 36959 ft 457 kts 174°
2026-05-06 17:22 46.01081 22.19934 36947 ft 457 kts 174°
2026-05-06 17:22 45.95878 22.21266 36962 ft 457 kts 174°
2026-05-06 17:23 45.89618 22.22877 36969 ft 457 kts 174°
2026-05-06 17:23 45.83349 22.24484 36965 ft 458 kts 174°
2026-05-06 17:24 45.77068 22.26082 36960 ft 459 kts 174°
2026-05-06 17:24 45.70822 22.27671 36967 ft 459 kts 174°
2026-05-06 17:25 45.64538 22.29255 36984 ft 459 kts 174°
2026-05-06 17:25 45.58250 22.30856 36981 ft 458 kts 174°
2026-05-06 17:26 45.51975 22.32446 36973 ft 458 kts 174°
2026-05-06 17:26 45.45751 22.34481 36984 ft 464 kts 163°
2026-05-06 17:27 45.39851 22.38138 36969 ft 467 kts 159°
2026-05-06 17:27 45.33906 22.41880 36968 ft 467 kts 159°
2026-05-06 17:28 45.27954 22.45586 36987 ft 467 kts 160°
2026-05-06 17:28 45.22006 22.49287 37000 ft 467 kts 160°
2026-05-06 17:29 45.16062 22.52983 36984 ft 467 kts 159°
2026-05-06 17:29 45.10142 22.56659 36975 ft 468 kts 159°
2026-05-06 17:30 45.04182 22.60358 36987 ft 468 kts 159°
2026-05-06 17:30 44.98222 22.64048 36984 ft 467 kts 159°
2026-05-06 17:31 44.92258 22.67715 36994 ft 467 kts 160°
2026-05-06 17:31 44.86288 22.71379 36959 ft 468 kts 159°
2026-05-06 17:32 44.80359 22.75019 36960 ft 468 kts 159°
2026-05-06 17:32 44.74390 22.78677 36969 ft 468 kts 159°
2026-05-06 17:33 44.68411 22.82330 36979 ft 468 kts 159°
2026-05-06 17:33 44.62442 22.85977 36959 ft 468 kts 159°
2026-05-06 17:34 44.56515 22.89588 36976 ft 467 kts 159°
2026-05-06 17:34 44.50554 22.93203 36976 ft 466 kts 159°
2026-05-06 17:35 44.44595 22.96797 36978 ft 466 kts 160°
2026-05-06 17:35 44.38642 23.00384 36970 ft 466 kts 160°
2026-05-06 17:36 44.29706 23.05772 36952 ft 467 kts 159°
2026-05-06 17:36 44.23778 23.09350 36951 ft 468 kts 159°
2026-05-06 17:37 44.17800 23.12935 36955 ft 468 kts 159°
2026-05-06 17:37 44.11816 23.16503 36964 ft 468 kts 159°
2026-05-06 17:38 44.05831 23.20076 36968 ft 468 kts 159°
2026-05-06 17:38 43.99846 23.23644 36965 ft 469 kts 159°
2026-05-06 17:39 43.93887 23.27180 36969 ft 469 kts 159°
2026-05-06 17:39 43.87887 23.30737 36966 ft 469 kts 159°
2026-05-06 17:40 43.81883 23.34279 36967 ft 469 kts 159°
2026-05-06 17:40 43.75885 23.37824 36969 ft 469 kts 159°
2026-05-06 17:41 43.69874 23.41371 36962 ft 470 kts 159°
2026-05-06 17:41 43.63863 23.44903 36967 ft 470 kts 159°
2026-05-06 17:42 43.57889 23.48397 36972 ft 469 kts 159°
2026-05-06 17:42 43.51876 23.51912 36978 ft 469 kts 159°
2026-05-06 17:43 43.45857 23.55429 36961 ft 470 kts 159°
2026-05-06 17:43 43.39874 23.58916 36969 ft 470 kts 159°
2026-05-06 17:44 43.33846 23.62415 36979 ft 470 kts 159°
2026-05-06 17:44 43.27816 23.65915 36982 ft 470 kts 159°
2026-05-06 17:45 43.21786 23.69407 36977 ft 471 kts 159°
2026-05-06 17:45 43.15752 23.72898 36986 ft 471 kts 159°
2026-05-06 17:46 43.09750 23.76364 36990 ft 471 kts 159°
2026-05-06 17:46 43.03702 23.79839 37003 ft 472 kts 159°
2026-05-06 17:47 42.97654 23.83304 37007 ft 471 kts 159°
2026-05-06 17:47 42.91602 23.86769 37003 ft 472 kts 159°
2026-05-06 17:48 42.85586 23.90204 37006 ft 472 kts 159°
2026-05-06 17:48 42.79525 23.93661 37007 ft 472 kts 160°
2026-05-06 17:49 42.73465 23.97114 37024 ft 472 kts 160°
2026-05-06 17:49 42.67397 24.00549 37033 ft 472 kts 159°
2026-05-06 17:50 42.61368 24.03959 37029 ft 473 kts 159°
2026-05-06 17:50 42.55299 24.07399 37020 ft 473 kts 159°
2026-05-06 17:51 42.49225 24.10831 37025 ft 473 kts 160°
2026-05-06 17:51 42.43151 24.14247 37028 ft 473 kts 159°
2026-05-06 17:52 42.37103 24.17644 37007 ft 474 kts 159°
2026-05-06 17:52 42.31003 24.21064 36996 ft 475 kts 159°
2026-05-06 17:53 42.24894 24.24490 37000 ft 476 kts 159°
2026-05-06 17:53 42.18774 24.27906 37001 ft 476 kts 159°
2026-05-06 17:54 42.12688 24.31293 37001 ft 477 kts 159°
2026-05-06 17:54 42.06556 24.34705 37014 ft 477 kts 159°
2026-05-06 17:55 42.00420 24.38102 37031 ft 477 kts 160°
2026-05-06 17:55 41.94280 24.41501 37020 ft 478 kts 159°
2026-05-06 17:56 41.88168 24.44874 37024 ft 478 kts 159°
2026-05-06 17:56 41.82011 24.48274 37041 ft 479 kts 159°
2026-05-06 17:57 41.75836 24.51667 37055 ft 480 kts 159°
2026-05-06 17:57 41.69655 24.55059 37046 ft 480 kts 159°
2026-05-06 17:58 41.63522 24.58418 37059 ft 479 kts 160°
2026-05-06 17:58 41.57350 24.61794 37063 ft 479 kts 160°
2026-05-06 17:59 41.51181 24.65171 37058 ft 479 kts 159°
2026-05-06 17:59 41.45014 24.68540 37062 ft 480 kts 157°
2026-05-06 18:00 41.39416 24.73266 37063 ft 482 kts 139°
2026-05-06 18:00 41.34415 24.79223 37060 ft 483 kts 139°
2026-05-06 18:01 41.29395 24.85156 37051 ft 483 kts 139°
2026-05-06 18:01 41.24362 24.91077 37054 ft 483 kts 139°
2026-05-06 18:02 41.19323 24.96993 37060 ft 484 kts 139°
2026-05-06 18:02 41.14316 25.02876 37070 ft 484 kts 139°
2026-05-06 18:03 41.09268 25.08797 37060 ft 485 kts 139°
2026-05-06 18:03 41.04208 25.14719 37059 ft 486 kts 139°
2026-05-06 18:04 40.99140 25.20635 37062 ft 486 kts 139°
2026-05-06 18:04 40.94098 25.26507 37064 ft 486 kts 139°
2026-05-06 18:05 40.89017 25.32412 37075 ft 486 kts 139°
2026-05-06 18:05 40.83932 25.38303 37077 ft 487 kts 139°
2026-05-06 18:06 40.78893 25.44274 37070 ft 486 kts 133°
2026-05-06 18:06 40.74462 25.51013 37069 ft 486 kts 130°
2026-05-06 18:07 40.70088 25.57735 37073 ft 486 kts 130°
2026-05-06 18:07 40.65673 25.64485 37072 ft 486 kts 129°
2026-05-06 18:08 40.61250 25.71239 37066 ft 487 kts 130°
2026-05-06 18:08 40.56849 25.77941 37074 ft 488 kts 130°
2026-05-06 18:09 40.52408 25.84686 37077 ft 488 kts 130°
2026-05-06 18:09 40.47963 25.91423 37073 ft 488 kts 130°
2026-05-06 18:10 40.43483 25.98130 37084 ft 489 kts 130°
2026-05-06 18:10 40.38976 26.04831 37072 ft 490 kts 130°
2026-05-06 18:11 40.34470 26.11532 37075 ft 490 kts 130°
2026-05-06 18:11 40.29988 26.18196 37078 ft 491 kts 130°
2026-05-06 18:12 40.25467 26.24908 37073 ft 491 kts 130°
2026-05-06 18:12 40.20939 26.31606 37094 ft 492 kts 130°
2026-05-06 18:13 40.16405 26.38305 37095 ft 492 kts 130°
2026-05-06 18:13 40.11851 26.44910 37096 ft 493 kts 133°
2026-05-06 18:14 40.06996 26.51235 37091 ft 493 kts 135°
2026-05-06 18:14 40.02020 26.57403 37093 ft 493 kts 136°
2026-05-06 18:15 39.97081 26.63612 37093 ft 493 kts 135°
2026-05-06 18:15 39.92196 26.69889 37092 ft 493 kts 134°
2026-05-06 18:16 39.87309 26.76168 37092 ft 493 kts 135°
2026-05-06 18:16 39.82437 26.82377 37090 ft 493 kts 135°
2026-05-06 18:17 39.77520 26.88615 37113 ft 494 kts 135°
2026-05-06 18:17 39.72569 26.94804 37090 ft 494 kts 135°
2026-05-06 18:18 39.67543 27.00913 37084 ft 495 kts 136°
2026-05-06 18:18 39.62511 27.07024 37086 ft 496 kts 136°
2026-05-06 18:19 39.57529 27.13122 37090 ft 496 kts 136°
2026-05-06 18:19 39.52509 27.19261 37102 ft 496 kts 136°
2026-05-06 18:20 39.47786 27.25751 37090 ft 495 kts 128°
2026-05-06 18:20 39.43404 27.32623 37087 ft 495 kts 128°
2026-05-06 18:21 39.39010 27.39491 37084 ft 496 kts 128°
2026-05-06 18:21 39.34642 27.46306 37085 ft 496 kts 128°
2026-05-06 18:22 39.30236 27.53168 37085 ft 497 kts 128°
2026-05-06 18:22 39.25814 27.60035 37073 ft 497 kts 128°
2026-05-06 18:23 39.21394 27.66898 37076 ft 498 kts 128°
2026-05-06 18:23 39.16989 27.73714 37079 ft 498 kts 128°
2026-05-06 18:24 39.12547 27.80559 37064 ft 498 kts 128°
2026-05-06 18:24 39.08105 27.87412 37074 ft 498 kts 128°
2026-05-06 18:25 39.03659 27.94256 37079 ft 498 kts 128°
2026-05-06 18:25 38.99204 28.01086 37083 ft 499 kts 128°
2026-05-06 18:26 38.94769 28.07864 37109 ft 499 kts 128°
2026-05-06 18:26 38.90304 28.14685 37099 ft 499 kts 128°
2026-05-06 18:27 38.85839 28.21505 37092 ft 499 kts 128°
2026-05-06 18:27 38.81363 28.28318 37091 ft 499 kts 128°
2026-05-06 18:28 38.76883 28.35122 37086 ft 499 kts 129°
2026-05-06 18:28 38.72427 28.41865 37103 ft 499 kts 129°
2026-05-06 18:29 38.67934 28.48650 37103 ft 500 kts 129°
2026-05-06 18:29 38.63432 28.55430 37102 ft 500 kts 129°
2026-05-06 18:30 38.58864 28.62135 37099 ft 500 kts 135°
2026-05-06 18:30 38.53390 28.67612 37119 ft 501 kts 145°
2026-05-06 18:31 38.47682 28.72717 37091 ft 501 kts 145°
2026-05-06 18:31 38.42006 28.77799 37091 ft 502 kts 145°
2026-05-06 18:32 38.36286 28.82909 37096 ft 502 kts 145°
2026-05-06 18:32 38.30559 28.88022 37099 ft 503 kts 145°
2026-05-06 18:33 38.24826 28.93118 37109 ft 503 kts 145°
2026-05-06 18:33 38.19078 28.98201 37113 ft 503 kts 146°
2026-05-06 18:34 38.13370 29.03248 37116 ft 503 kts 145°
2026-05-06 18:34 38.07631 29.08328 37117 ft 503 kts 146°
2026-05-06 18:35 38.01884 29.13400 37120 ft 503 kts 146°
2026-05-06 18:35 37.96139 29.18461 37119 ft 503 kts 146°
2026-05-06 18:36 37.90389 29.23505 37111 ft 503 kts 146°
2026-05-06 18:36 37.84636 29.28543 37133 ft 503 kts 146°
2026-05-06 18:37 37.78926 29.33551 37134 ft 503 kts 146°
2026-05-06 18:37 37.73171 29.38584 37139 ft 503 kts 146°
2026-05-06 18:38 37.67413 29.43606 37126 ft 503 kts 146°
2026-05-06 18:38 37.61658 29.48621 37136 ft 503 kts 146°
2026-05-06 18:39 37.55941 29.53595 37131 ft 502 kts 146°
2026-05-06 18:40 37.47316 29.61078 37148 ft 502 kts 146°
2026-05-06 18:40 37.41564 29.66048 37143 ft 501 kts 146°
2026-05-06 18:41 37.35825 29.70996 37133 ft 500 kts 146°
2026-05-06 18:41 37.30136 29.75911 37139 ft 499 kts 146°
2026-05-06 18:42 37.24416 29.80842 37139 ft 499 kts 147°
2026-05-06 18:42 37.18691 29.85758 37147 ft 498 kts 147°
2026-05-06 18:43 37.12966 29.90659 37140 ft 498 kts 147°
2026-05-06 18:43 37.07248 29.95561 37125 ft 498 kts 147°
2026-05-06 18:44 37.01524 30.00478 37124 ft 499 kts 147°
2026-05-06 18:44 36.95831 30.05341 37123 ft 499 kts 147°
2026-05-06 18:45 36.90085 30.10237 37124 ft 500 kts 147°
2026-05-06 18:45 36.84342 30.15131 37132 ft 500 kts 147°
2026-05-06 18:46 36.78589 30.20020 37116 ft 501 kts 147°
2026-05-06 18:46 36.72861 30.24868 37123 ft 501 kts 147°
2026-05-06 18:47 36.67093 30.29748 37111 ft 501 kts 147°
2026-05-06 18:47 36.61322 30.34618 37114 ft 501 kts 148°
2026-05-06 18:48 36.55541 30.39483 37115 ft 501 kts 148°
2026-05-06 18:48 36.49765 30.44336 37114 ft 501 kts 148°
2026-05-06 18:49 36.44033 30.49147 37112 ft 501 kts 148°
2026-05-06 18:49 36.38264 30.53981 37107 ft 500 kts 148°
2026-05-06 18:50 36.32492 30.58811 37102 ft 500 kts 148°
2026-05-06 18:50 36.26722 30.63624 37078 ft 500 kts 148°
2026-05-06 18:51 36.20990 30.68383 37093 ft 499 kts 148°
2026-05-06 18:51 36.15221 30.73168 37106 ft 499 kts 148°
2026-05-06 18:52 36.09457 30.77962 37107 ft 499 kts 148°
2026-05-06 18:52 36.03697 30.82749 37102 ft 499 kts 147°
2026-05-06 18:53 35.98185 30.87877 37088 ft 500 kts 143°
2026-05-06 18:53 35.92842 30.93378 37105 ft 500 kts 141°
2026-05-06 18:54 35.87482 30.98860 37105 ft 500 kts 143°
2026-05-06 18:54 35.82050 31.04209 37112 ft 499 kts 144°
2026-05-06 18:55 35.76597 31.09502 37115 ft 499 kts 144°
2026-05-06 18:55 35.71186 31.14770 37095 ft 499 kts 144°
2026-05-06 18:56 35.65757 31.20091 37111 ft 499 kts 143°
2026-05-06 18:56 35.60323 31.25416 37119 ft 499 kts 144°
2026-05-06 18:57 35.54889 31.30725 37121 ft 499 kts 144°
2026-05-06 18:57 35.49494 31.35981 37122 ft 498 kts 144°
2026-05-06 18:58 35.44067 31.41250 37121 ft 498 kts 144°
2026-05-06 18:58 35.38630 31.46503 37095 ft 497 kts 144°
2026-05-06 18:59 35.33235 31.51721 37104 ft 497 kts 144°
2026-05-06 18:59 35.27808 31.56976 37113 ft 498 kts 144°
2026-05-06 19:00 35.22374 31.62220 37112 ft 498 kts 144°
2026-05-06 19:00 35.16933 31.67460 37114 ft 498 kts 145°
2026-05-06 19:01 35.11489 31.72683 37116 ft 498 kts 145°
2026-05-06 19:01 35.06082 31.77869 37103 ft 497 kts 145°
2026-05-06 19:02 35.00642 31.83077 37118 ft 497 kts 145°
2026-05-06 19:02 34.95201 31.88276 37120 ft 497 kts 145°
2026-05-06 19:03 34.89762 31.93467 37120 ft 496 kts 145°
2026-05-06 19:03 34.84363 31.98611 37117 ft 496 kts 145°
2026-05-06 19:04 34.78929 32.03783 37097 ft 496 kts 146°
2026-05-06 19:04 34.73499 32.08941 37116 ft 495 kts 146°
2026-05-06 19:05 34.68074 32.14076 37122 ft 494 kts 146°
2026-05-06 19:05 34.62688 32.19162 37121 ft 493 kts 146°
2026-05-06 19:06 34.57278 32.24286 37119 ft 493 kts 146°
2026-05-06 19:06 34.51866 32.29395 37113 ft 493 kts 146°
2026-05-06 19:07 34.46454 32.34487 37104 ft 492 kts 146°
2026-05-06 19:07 34.41084 32.39535 37109 ft 492 kts 146°
2026-05-06 19:08 34.35678 32.44608 37113 ft 492 kts 146°
2026-05-06 19:08 34.30269 32.49665 37113 ft 491 kts 147°
2026-05-06 19:09 34.24856 32.54719 37118 ft 491 kts 147°
2026-05-06 19:09 34.19487 32.59732 37088 ft 491 kts 146°
2026-05-06 19:10 34.14092 32.64768 37113 ft 490 kts 147°
2026-05-06 19:10 34.08687 32.69764 37122 ft 488 kts 150°
2026-05-06 19:11 34.02974 32.74091 37121 ft 484 kts 153°
2026-05-06 19:11 33.97284 32.78328 37123 ft 484 kts 153°
2026-05-06 19:12 33.91562 32.82597 37125 ft 483 kts 153°
2026-05-06 19:12 33.85847 32.86851 37107 ft 483 kts 153°
2026-05-06 19:13 33.80130 32.91085 37120 ft 482 kts 153°
2026-05-06 19:13 33.74463 32.95272 37121 ft 481 kts 153°
2026-05-06 19:14 33.68758 32.99474 37121 ft 481 kts 153°
2026-05-06 19:14 33.63060 33.03684 37122 ft 481 kts 153°
2026-05-06 19:15 33.57369 33.07892 37111 ft 480 kts 153°
2026-05-06 19:15 33.51714 33.12063 37119 ft 480 kts 153°
2026-05-06 19:15 33.48872 33.14157 37018 ft 481 kts 153°
2026-05-06 19:16 33.46025 33.16251 36745 ft 480 kts 154°
2026-05-06 19:16 33.43174 33.18340 36487 ft 480 kts 154°
2026-05-06 19:16 33.40325 33.20425 36232 ft 479 kts 154°
2026-05-06 19:16 33.37501 33.22495 35981 ft 472 kts 154°
2026-05-06 19:17 33.34724 33.24534 35728 ft 466 kts 154°
2026-05-06 19:17 33.31964 33.26554 35456 ft 463 kts 154°
2026-05-06 19:17 33.29223 33.28557 35217 ft 461 kts 154°
2026-05-06 19:17 33.26500 33.30539 34981 ft 469 kts 154°
2026-05-06 19:18 33.23727 33.32557 34740 ft 464 kts 154°
2026-05-06 19:18 33.20987 33.34553 34499 ft 460 kts 154°
2026-05-06 19:18 33.18264 33.36537 34264 ft 458 kts 154°
2026-05-06 19:18 33.15548 33.38516 34017 ft 456 kts 154°
2026-05-06 19:19 33.12828 33.40499 33122 ft 464 kts 154°
2026-05-06 19:19 33.10085 33.42496 32739 ft 456 kts 154°
2026-05-06 19:19 33.07407 33.44455 31997 ft 448 kts 154°
2026-05-06 19:19 33.04804 33.46357 31202 ft 442 kts 154°
2026-05-06 19:20 33.02180 33.48265 30103 ft 444 kts 154°
2026-05-06 19:20 32.99537 33.50179 28966 ft 444 kts 154°
2026-05-06 19:20 32.96910 33.52081 27996 ft 439 kts 154°
2026-05-06 19:20 32.94317 33.53954 27095 ft 434 kts 154°
2026-05-06 19:21 32.91751 33.55808 26240 ft 428 kts 154°
2026-05-06 19:21 32.89218 33.57640 25421 ft 423 kts 154°
2026-05-06 19:21 32.86719 33.59449 24645 ft 419 kts 153°
2026-05-06 19:21 32.84282 33.61225 23816 ft 415 kts 152°
2026-05-06 19:22 32.81954 33.63313 22675 ft 422 kts 142°
2026-05-06 19:22 32.79877 33.65772 21715 ft 419 kts 136°
2026-05-06 19:22 32.77874 33.68258 20834 ft 413 kts 137°
2026-05-06 19:22 32.75897 33.70696 19985 ft 406 kts 137°
2026-05-06 19:23 32.73950 33.73091 19133 ft 400 kts 137°
2026-05-06 19:23 32.72026 33.75452 18347 ft 396 kts 137°
2026-05-06 19:23 32.70148 33.77759 17877 ft 378 kts 137°
2026-05-06 19:23 32.68376 33.79942 17112 ft 371 kts 137°
2026-05-06 19:24 32.66587 33.82142 16446 ft 370 kts 137°
2026-05-06 19:24 32.64802 33.84332 15895 ft 368 kts 137°
2026-05-06 19:24 32.63014 33.86523 15330 ft 370 kts 137°
2026-05-06 19:24 32.61234 33.88710 14981 ft 365 kts 137°
2026-05-06 19:25 32.59498 33.90842 14421 ft 356 kts 136°
2026-05-06 19:25 32.57785 33.92943 13675 ft 352 kts 136°
2026-05-06 19:25 32.56079 33.95030 12950 ft 355 kts 136°
2026-05-06 19:25 32.54400 33.97100 12696 ft 350 kts 136°
2026-05-06 19:26 32.52722 33.99197 12474 ft 348 kts 136°
2026-05-06 19:26 32.51068 34.01275 12230 ft 345 kts 135°
2026-05-06 19:26 32.49433 34.03329 12005 ft 339 kts 135°
2026-05-06 19:26 32.47842 34.05324 11882 ft 327 kts 136°
2026-05-06 19:27 32.46301 34.07251 11715 ft 319 kts 136°
2026-05-06 19:27 32.44783 34.09143 11428 ft 315 kts 136°
2026-05-06 19:27 32.43277 34.11024 11086 ft 314 kts 134°
2026-05-06 19:27 32.41966 34.13083 10825 ft 313 kts 125°
2026-05-06 19:28 32.40773 34.15183 10572 ft 311 kts 125°
2026-05-06 19:28 32.39565 34.17295 10321 ft 309 kts 125°
2026-05-06 19:28 32.38362 34.19394 10087 ft 307 kts 125°
2026-05-06 19:28 32.37166 34.21479 9822 ft 305 kts 125°
2026-05-06 19:29 32.35977 34.23550 9586 ft 304 kts 125°
2026-05-06 19:29 32.34796 34.25611 9346 ft 302 kts 125°
2026-05-06 19:29 32.33624 34.27659 9105 ft 300 kts 125°
2026-05-06 19:29 32.32458 34.29693 8869 ft 298 kts 124°
2026-05-06 19:30 32.31313 34.31684 8644 ft 296 kts 124°
2026-05-06 19:30 32.30158 34.33689 8404 ft 294 kts 124°
2026-05-06 19:30 32.29011 34.35682 8171 ft 292 kts 124°
2026-05-06 19:30 32.27870 34.37661 7940 ft 290 kts 124°
2026-05-06 19:31 32.26737 34.39626 7712 ft 288 kts 124°
2026-05-06 19:31 32.25608 34.41578 7481 ft 287 kts 124°
2026-05-06 19:31 32.23366 34.45453 7019 ft 285 kts 124°
2026-05-06 19:32 32.22268 34.47353 6744 ft 283 kts 123°
2026-05-06 19:32 32.21160 34.49268 6425 ft 282 kts 124°
2026-05-06 19:32 32.20013 34.51133 6109 ft 280 kts 128°
2026-05-06 19:32 32.18858 34.52972 5804 ft 277 kts 123°
2026-05-06 19:33 32.17842 34.54899 5503 ft 275 kts 121°
2026-05-06 19:33 32.16864 34.56833 5202 ft 273 kts 121°
2026-05-06 19:33 32.15887 34.58737 4952 ft 270 kts 121°
2026-05-06 19:33 32.14917 34.60615 4692 ft 266 kts 121°
2026-05-06 19:34 32.13973 34.62443 4433 ft 255 kts 121°
2026-05-06 19:34 32.13087 34.64157 4182 ft 241 kts 121°
2026-05-06 19:34 32.12239 34.65800 3962 ft 227 kts 121°
2026-05-06 19:34 32.11447 34.67332 3813 ft 212 kts 120°
2026-05-06 19:35 32.10695 34.68786 3599 ft 204 kts 120°
2026-05-06 19:35 32.09970 34.70187 3327 ft 197 kts 120°
2026-05-06 19:35 32.09270 34.71542 3062 ft 190 kts 120°
2026-05-06 19:35 32.08591 34.72857 2799 ft 186 kts 120°
2026-05-06 19:36 32.07923 34.74138 2546 ft 182 kts 120°
2026-05-06 19:36 32.07266 34.75403 2298 ft 180 kts 119°
2026-05-06 19:36 32.06625 34.76644 2074 ft 179 kts 119°
2026-05-06 19:36 32.05977 34.77896 1827 ft 177 kts 119°
2026-05-06 19:37 32.05376 34.79052 1678 ft 156 kts 119°
2026-05-06 19:37 32.04835 34.80098 1428 ft 145 kts 119°
2026-05-06 19:37 32.04316 34.81098 1220 ft 141 kts 119°
2026-05-06 19:37 32.03981 34.81748 1109 ft 140 kts 119°
2026-05-06 19:38 32.03306 34.83044 860 ft 138 kts 120°
2026-05-06 19:38 32.02803 34.84013 674 ft 139 kts 120°
2026-05-06 19:38 32.02308 34.84966 491 ft 138 kts 120°
2026-05-06 19:38 32.01808 34.85924 310 ft 138 kts 120°
2026-05-06 19:39 32.01312 34.86886 145 ft 138 kts 120°
2026-05-06 19:39 32.00867 34.87747 121 ft 100 kts 121°
2026-05-06 19:39 32.00594 34.88275 120 ft 51 kts 121°
2026-05-06 19:39 32.00466 34.88504 119 ft 29 kts 131°
2026-05-06 19:40 32.00300 34.88652 119 ft 26 kts 152°
2026-05-06 19:40 32.00204 34.88652 119 ft 13 kts 239°
2026-05-06 19:40 32.00226 34.88547 117 ft 15 kts 304°
2026-05-06 19:40 32.00276 34.88457 118 ft 13 kts 301°
2026-05-06 19:41 32.00330 34.88353 119 ft 17 kts 301°
2026-05-06 19:41 32.00397 34.88225 117 ft 20 kts 302°
2026-05-06 19:41 32.00458 34.88108 115 ft 16 kts 301°
2026-05-06 19:41 32.00512 34.88004 119 ft 10 kts 297°
2026-05-06 19:42 32.00472 34.87935 118 ft 13 kts 209°
2026-05-06 19:42 32.00386 34.87879 118 ft 16 kts 210°
2026-05-06 19:42 32.00295 34.87809 116 ft 12 kts 211°
2026-05-06 19:42 32.00215 34.87752 118 ft 15 kts 211°
2026-05-06 19:43 32.00129 34.87691 118 ft 12 kts 210°
2026-05-06 19:43 32.00086 34.87706 118 ft 8 kts 122°
2026-05-06 19:43 32.00065 34.87746 119 ft 3 kts 122°
2026-05-06 19:43 32.00056 34.87762 116 ft 0 kts 122°